Change the Weather History Date:

Tuesday, November 13, 2012

  Actual Average Record
Temperature  
Mean Temperature 66 °F -  
Max Temperature 73 °F 62 °F 84 °F (2013)
Min Temperature 59 °F 52 °F 46 °F (2000)
Cooling Degree Days 1    
Growing Degree Days 16 (Base 50)    
Moisture  
Dew Point 9 °F    
Average Humidity 11    
Maximum Humidity 15    
Minimum Humidity 7    
Precipitation  
Precipitation 0.00 in - - ()
Sea Level Pressure  
Sea Level Pressure 30.05 in    
Wind  
Wind Speed 6 mph (NNE)    
Max Wind Speed 10 mph    
Max Gust Speed -    
Visibility 10 miles    
Events      
Averages and records for this station are not official NWS values.
T = Trace of Precipitation, MM = Missing Value Source: NWS Daily Summary

Daily Weather History Graph

Daily Weather History Graph

Search for Another Location

Airport or City:

Trip Planner

Search our weather history database for the weather conditions in past years. The results will help you decide how hot, cold, wet, or windy it might be!

Date:

Astronomy

Nov. 13, 2012 Rise Set
Actual Time 6:23 AM PST 4:52 PM PST
Civil Twilight 5:57 AM PST 5:18 PM PST
Nautical Twilight 5:27 AM PST 5:48 PM PST
Astronomical Twilight 4:58 AM PST 6:17 PM PST
Moon 6:06 AM PST (11/13) 4:50 PM PST (11/13)
Length of Visible Light 11h 20m
Length of Day
10h 28m
Waning Crescent, 0% of the Moon is Illuminated
Nov 13
Waning Crescent
Nov 13
New
Nov 20
First Quarter
Nov 28
Full
Dec 6
Last Quarter

Hourly Weather History & Observations

Time (PST) Temp. Dew Point Humidity Pressure Visibility Wind Dir Wind Speed Gust Speed Precip Events Conditions
12:51 AM 61.0 °F 9.0 °F 13% 30.12 in 10.0 mi NE 5.8 mph - N/A   Clear
1:51 AM 62.1 °F 9.0 °F 12% 30.09 in 10.0 mi North 5.8 mph - N/A   Clear
2:51 AM 60.1 °F 12.0 °F 15% 30.09 in 10.0 mi North 5.8 mph - N/A   Clear
3:51 AM 59.0 °F 9.0 °F 14% 30.08 in 10.0 mi North 6.9 mph - N/A   Clear
4:51 AM 61.0 °F 3.0 °F 10% 30.08 in 10.0 mi NNE 8.1 mph - N/A   Clear
5:51 AM 61.0 °F 6.1 °F 11% 30.08 in 10.0 mi NNE 10.4 mph - N/A   Clear
6:51 AM 62.1 °F 9.0 °F 12% 30.09 in 10.0 mi NE 10.4 mph - N/A   Clear
7:51 AM 64.9 °F 10.0 °F 12% 30.09 in 10.0 mi NE 5.8 mph - N/A   Clear
8:51 AM 66.9 °F 5.0 °F 9% 30.09 in 10.0 mi ENE 8.1 mph - N/A   Clear
9:51 AM 68.0 °F 8.1 °F 10% 30.08 in 10.0 mi NE 6.9 mph - N/A   Clear
10:51 AM 73.0 °F 8.1 °F 8% 30.07 in 10.0 mi Calm Calm - N/A   Clear
11:51 AM 72.0 °F 15.1 °F 11% 30.05 in 10.0 mi Calm Calm - N/A   Clear
12:51 PM 72.0 °F 10.0 °F 9% 30.03 in 10.0 mi North 3.5 mph - N/A   Clear
1:51 PM 73.0 °F 8.1 °F 8% 30.00 in 10.0 mi NNE 4.6 mph - N/A   Clear
3:51 PM 73.9 °F 6.1 °F 7% 30.00 in 10.0 mi NNE 3.5 mph - N/A   Clear
4:51 PM 73.0 °F 5.0 °F 7% 30.00 in 10.0 mi Calm Calm - N/A   Clear
5:51 PM 70.0 °F 5.0 °F 8% 30.00 in 10.0 mi NNE 6.9 mph - N/A   Clear
6:51 PM 70.0 °F 10.9 °F 10% 30.00 in 10.0 mi NE 8.1 mph - N/A   Clear
7:51 PM 70.0 °F 12.0 °F 11% 30.00 in 10.0 mi ENE 3.5 mph - N/A   Clear
8:51 PM 70.0 °F 12.0 °F 11% 30.01 in 10.0 mi NNE 6.9 mph - N/A   Clear
9:51 PM 68.0 °F 12.0 °F 11% 30.01 in 10.0 mi NE 5.8 mph - N/A   Clear
10:51 PM 68.0 °F 15.1 °F 13% 30.01 in 10.0 mi ENE 5.8 mph - N/A   Clear
11:51 PM 69.1 °F 14.0 °F 12% 30.01 in 10.0 mi Calm Calm - N/A   Clear